Wind_Speed
79 85 92 99 105 109 109 105 98 92 87 84 84 85 85 87 89 93 99 103 108 111 112 109 105 102 98 96 92 88 84 80 78 74 71 69 67 64 61 58 55 54 53
84 91 97 103 105 103 97 90 84 81 80 81 81 82 82 82 83 84 87 90 95 101 107 109 109 107 104 101 98 95 90 86 83 80 76 73 71 68 65 61 58 56 55
88 95 100 102 100 92 85 81 80 81 82 83 83 83 82 82 82 83 83 85 87 92 97 103 107 109 108 106 104 101 97 92 89 86 82 78 75 72 69 66 62 59 57
93 98 100 98 91 83 80 80 81 81 81 81 80 79 78 80 81 81 82 82 84 86 90 96 102 106 109 109 108 106 102 98 95 91 87 83 79 76 73 70 66 62 59
95 98 97 90 83 79 79 79 79 79 77 74 70 67 66 67 71 75 79 80 82 84 87 91 98 104 108 110 110 109 107 103 100 96 93 89 84 80 77 74 70 66 63
96 96 91 84 79 78 78 77 77 75 72 67 61 58 58 60 61 65 71 77 79 82 86 90 95 101 106 109 111 112 111 108 105 102 98 94 89 85 81 78 75 70 66
96 92 85 79 78 77 76 76 75 71 65 61 57 55 54 56 57 60 64 71 76 79 83 88 93 99 104 109 112 114 114 112 110 107 103 99 95 90 86 82 79 74 69
93 87 81 77 77 76 75 75 74 68 61 58 57 56 53 48 48 52 58 65 73 79 82 86 90 94 99 106 112 116 117 117 114 111 108 104 100 95 90 86 83 79 73
89 83 78 76 75 75 74 74 72 66 59 54 54 55 54 46 36 37 48 58 69 76 79 81 84 89 95 102 110 116 120 121 119 116 113 109 105 100 94 90 87 83 77
85 79 76 76 74 74 74 73 70 64 58 52 49 47 47 45 35 24 34 48 61 72 77 77 79 83 89 96 104 113 119 123 123 121 118 114 109 104 99 94 90 87 82
82 77 75 75 74 74 73 72 67 61 55 50 46 43 39 37 33 22 18 34 50 64 72 74 74 77 82 89 97 106 115 122 125 125 122 119 114 108 103 98 94 90 86
79 75 74 74 74 73 73 71 65 59 52 46 41 38 36 33 29 22 13 19 36 53 65 70 71 74 77 81 88 97 107 117 124 126 126 122 117 112 107 102 97 93 89
77 73 72 72 73 73 72 69 64 57 50 43 38 34 31 28 26 21 14 9 24 41 56 65 69 72 75 77 79 86 97 108 117 124 126 125 120 115 110 105 100 96 92
75 72 71 71 72 72 72 68 63 56 48 41 36 32 28 25 22 19 14 8 15 31 47 59 66 71 73 73 73 76 85 97 108 118 124 125 123 118 114 108 103 99 94
74 71 70 71 71 72 71 68 63 56 48 41 35 31 27 23 20 17 13 9 12 24 39 52 61 67 70 70 68 68 73 83 96 109 118 124 123 120 116 112 106 101 97
73 70 70 70 70 71 70 67 62 56 49 42 37 32 27 23 20 17 14 11 12 21 33 46 56 63 67 67 66 64 64 72 85 99 110 119 122 121 118 114 108 104 100
72 69 69 69 70 70 70 66 62 56 48 42 38 34 28 23 19 17 16 14 14 20 29 39 50 58 63 65 64 61 59 63 74 89 102 113 119 121 119 116 111 106 102
72 68 68 68 69 69 69 65 60 55 49 43 39 34 29 23 18 17 16 15 15 18 25 34 44 53 59 62 62 60 56 57 66 80 94 106 115 120 118 117 113 108 103
71 67 67 67 67 68 68 64 59 55 49 44 40 35 30 24 18 16 15 15 15 16 22 30 39 47 54 59 60 59 56 53 59 72 87 100 111 117 118 116 114 109 105
70 66 65 65 65 66 67 63 57 54 50 45 41 36 31 25 19 15 13 13 13 15 18 26 34 42 49 54 56 57 55 52 54 66 81 93 105 114 117 115 113 110 105
69 65 64 64 64 64 65 63 57 54 50 46 42 38 34 28 22 17 13 11 11 13 16 21 29 37 43 49 52 54 52 50 52 62 76 89 100 110 115 114 113 111 106
68 64 63 62 62 62 63 63 58 53 49 46 43 39 35 31 25 20 15 11 9 10 14 17 23 31 38 44 48 50 50 49 50 59 72 85 96 106 112 111 111 110 106
69 63 61 60 60 60 61 61 58 51 47 44 41 39 37 33 28 22 17 13 8 7 10 14 19 26 33 39 42 45 46 46 48 56 69 81 92 100 108 108 109 109 106
69 63 60 58 58 58 58 59 57 51 46 42 40 38 37 34 30 25 20 15 10 5 6 11 16 22 28 34 38 41 43 44 47 55 67 78 89 96 104 105 106 107 106
69 64 59 57 57 57 56 56 56 52 45 41 38 37 35 34 32 27 23 17 12 7 4 8 14 20 25 29 33 37 40 42 47 56 66 76 85 92 99 101 102 104 104
70 64 59 57 56 55 55 55 54 52 46 40 37 35 34 33 32 29 25 21 15 9 3 5 11 17 23 27 30 34 38 42 47 56 66 74 82 90 95 97 98 101 101
Wind_Direction
311 310 309 307 304 301 299 297 295 292 288 284 280 276 272 268 264 261 258 255 252 249 246 244 241 238 236 235 234 233 232 232 232 231 230 229 229 229 229 228 227 225 223
314 313 311 308 306 304 303 301 299 296 292 287 283 278 273 268 263 258 254 250 248 246 243 241 239 237 234 232 232 231 231 230 230 230 229 228 227 227 227 227 227 226 224
316 315 313 311 310 309 307 305 303 299 296 292 286 281 275 270 264 259 253 248 244 241 239 237 236 234 232 230 229 229 228 228 228 228 228 227 226 225 225 226 226 225 224
319 318 316 315 314 313 311 309 306 304 300 296 291 284 278 270 264 258 253 248 242 238 235 233 231 230 229 228 226 226 226 226 226 226 226 225 225 223 223 224 225 225 224
322 321 320 319 318 316 315 313 311 309 306 301 296 289 282 275 266 258 251 246 241 236 232 229 227 225 225 224 224 223 223 223 223 224 224 224 223 222 221 222 223 223 223
325 324 323 322 321 320 319 317 316 314 311 306 301 295 289 280 270 259 250 243 238 234 230 226 224 222 221 220 220 220 220 221 221 221 222 222 221 220 219 219 220 221 222
328 327 326 325 324 324 323 322 321 319 316 311 307 302 296 288 275 261 250 241 235 232 228 225 222 220 218 217 217 217 217 218 219 219 219 220 219 219 217 217 218 219 220
331 330 329 329 328 327 327 326 326 324 321 318 315 312 308 298 282 264 249 238 231 228 226 223 221 219 217 216 215 215 215 215 216 217 217 217 217 217 216 215 215 217 218
334 333 332 332 332 331 331 331 330 328 325 323 321 321 321 316 298 269 249 235 228 225 225 223 220 218 217 216 215 214 213 213 214 214 215 215 215 215 214 213 213 215 216
336 335 335 335 335 334 334 335 334 331 328 326 325 326 328 328 321 289 252 236 226 222 221 221 219 217 216 216 216 214 213 212 212 212 213 213 214 213 213 212 212 213 214
338 337 337 338 338 338 338 338 337 334 330 327 326 328 332 336 336 326 268 238 227 220 218 218 218 217 216 216 217 216 214 212 211 211 211 212 212 212 211 210 210 211 212
340 340 340 340 340 341 341 341 339 336 331 327 325 327 331 338 344 344 317 245 228 220 216 215 216 216 216 216 217 217 216 213 211 210 210 210 210 210 210 209 209 209 210
343 342 343 343 343 343 344 344 342 339 334 329 325 324 326 331 337 343 340 274 229 221 215 213 214 215 216 216 216 217 217 215 213 211 209 209 209 208 208 208 208 208 209
345 345 345 345 345 346 347 346 345 342 338 332 326 321 319 320 324 329 332 302 233 220 215 213 214 215 215 216 216 217 218 217 215 212 209 208 207 207 207 207 207 207 208
347 347 348 348 348 349 349 349 348 346 342 337 330 321 315 310 308 310 311 296 242 221 216 214 214 215 215 215 216 217 218 218 216 213 210 208 206 206 205 205 205 206 207
349 349 350 350 350 351 352 352 351 350 347 342 336 327 316 306 299 295 290 278 248 225 217 215 214 214 214 214 215 217 218 218 217 214 211 208 206 205 204 204 204 205 206
351 351 351 352 352 354 355 355 354 353 351 348 343 336 325 311 297 287 280 270 253 233 221 217 216 215 214 214 214 215 217 218 217 214 210 208 205 204 203 203 203 204 205
352 353 353 354 354 356 357 357 357 357 356 354 351 346 338 325 306 290 278 268 256 240 225 219 217 215 214 214 214 215 217 218 216 214 210 208 205 203 202 202 202 203 204
353 354 354 355 356 357 359 359 360 0 360 359 358 355 348 339 323 303 285 270 258 243 227 219 218 216 215 214 213 214 217 218 216 213 210 207 205 203 201 202 201 202 203
354 355 356 357 358 359 1 1 2 3 4 4 3 1 357 351 341 324 301 279 261 245 229 220 217 217 215 214 213 214 216 218 216 212 209 206 205 203 201 201 201 201 202
356 355 356 358 359 0 1 2 4 6 6 6 6 6 4 1 355 344 326 297 271 248 231 221 217 215 215 214 213 214 216 218 216 211 207 205 204 203 200 201 201 200 202
357 356 357 358 360 1 2 3 5 6 7 8 8 8 8 7 3 357 345 326 293 258 235 222 215 213 213 212 213 214 215 217 215 209 205 203 202 202 200 200 201 200 201
358 357 357 359 0 2 2 4 6 6 7 8 9 10 10 10 8 4 359 349 327 278 239 222 214 210 209 210 211 213 215 215 212 206 202 201 200 201 199 200 201 200 201
358 358 358 359 0 2 3 5 6 6 6 8 9 11 11 11 11 10 6 1 349 315 248 223 212 206 205 207 209 212 213 212 208 202 198 197 198 199 199 199 201 201 201
359 359 359 360 1 2 4 5 6 7 6 8 10 12 13 13 13 14 12 9 4 348 273 221 207 201 200 202 204 208 209 207 203 198 195 194 196 197 198 199 201 202 201
359 359 359 0 2 3 3 5 6 7 7 7 8 10 12 14 15 16 16 14 11 4 338 225 206 199 196 196 198 201 201 199 197 193 191 191 193 195 196 198 200 202 202
Height
5711 5697 5682 5664 5644 5623 5604 5586 5572 5561 5552 5545 5539 5534 5532 5532 5534 5539 5548 5558 5571 5587 5604 5620 5636 5651 5666 5680 5693 5706 5719 5731 5742 5753 5763 5773 5784 5793 5801 5808 5815 5822 5829
5692 5675 5657 5636 5613 5591 5571 5555 5542 5532 5523 5515 5509 5503 5500 5500 5502 5505 5512 5522 5534 5548 5564 5582 5599 5617 5634 5651 5666 5681 5696 5710 5722 5734 5746 5757 5769 5779 5789 5797 5805 5812 5819
5671 5651 5630 5606 5583 5563 5545 5531 5518 5506 5494 5484 5476 5470 5467 5466 5468 5472 5479 5489 5500 5512 5527 5544 5561 5580 5600 5619 5637 5655 5671 5686 5701 5715 5728 5741 5753 5765 5776 5785 5794 5802 5809
5648 5626 5603 5579 5557 5539 5523 5509 5494 5480 5467 5453 5443 5437 5432 5431 5434 5438 5446 5456 5467 5480 5493 5508 5525 5544 5564 5585 5607 5626 5644 5662 5678 5693 5708 5722 5736 5749 5761 5772 5782 5791 5799
5625 5602 5578 5556 5537 5520 5503 5487 5471 5455 5440 5426 5415 5408 5402 5399 5400 5405 5413 5422 5433 5447 5460 5475 5490 5507 5528 5553 5576 5597 5616 5635 5654 5671 5687 5703 5718 5732 5746 5758 5769 5779 5788
5603 5580 5557 5536 5518 5501 5484 5467 5451 5433 5416 5401 5391 5384 5378 5372 5371 5374 5379 5389 5401 5415 5428 5442 5457 5474 5497 5522 5544 5566 5588 5608 5628 5646 5664 5682 5698 5714 5729 5743 5756 5767 5777
5583 5560 5538 5519 5501 5483 5466 5448 5430 5414 5397 5382 5372 5364 5358 5348 5343 5344 5349 5361 5374 5386 5399 5413 5429 5447 5469 5492 5514 5537 5559 5580 5601 5622 5641 5660 5678 5696 5712 5727 5741 5753 5765
5565 5542 5522 5504 5486 5468 5450 5431 5412 5396 5381 5366 5353 5343 5335 5329 5320 5317 5322 5332 5344 5357 5371 5387 5405 5426 5447 5465 5486 5507 5530 5552 5575 5597 5618 5638 5658 5676 5694 5710 5725 5739 5752
5548 5527 5508 5490 5472 5453 5435 5416 5397 5380 5367 5355 5340 5327 5315 5306 5302 5298 5298 5307 5320 5335 5351 5369 5387 5405 5423 5440 5458 5480 5502 5524 5548 5572 5594 5615 5636 5657 5675 5693 5709 5725 5738
5534 5514 5496 5477 5459 5441 5422 5403 5384 5367 5354 5343 5333 5322 5309 5296 5288 5286 5285 5290 5300 5315 5331 5349 5367 5386 5404 5420 5436 5454 5475 5497 5522 5546 5569 5591 5614 5636 5656 5675 5693 5709 5724
5523 5503 5485 5467 5448 5430 5411 5392 5374 5358 5344 5333 5324 5315 5306 5296 5285 5279 5278 5280 5289 5301 5317 5334 5352 5370 5385 5399 5414 5431 5449 5471 5495 5520 5544 5568 5593 5615 5637 5657 5676 5693 5709
5513 5494 5476 5457 5439 5420 5402 5383 5365 5350 5337 5326 5317 5309 5302 5294 5286 5279 5275 5275 5281 5291 5304 5321 5337 5352 5365 5379 5393 5409 5426 5447 5471 5496 5521 5546 5571 5596 5618 5639 5659 5677 5694
5506 5486 5468 5450 5431 5413 5394 5375 5358 5343 5330 5320 5312 5305 5299 5292 5286 5280 5276 5274 5277 5284 5295 5309 5321 5334 5347 5361 5376 5392 5408 5428 5450 5473 5498 5524 5550 5576 5600 5622 5643 5662 5680
5498 5479 5461 5443 5425 5407 5388 5369 5352 5337 5325 5314 5307 5300 5295 5290 5285 5281 5277 5274 5275 5279 5287 5297 5308 5320 5334 5350 5366 5380 5396 5413 5431 5452 5477 5504 5530 5556 5581 5604 5627 5647 5666
5491 5473 5455 5438 5420 5402 5383 5364 5347 5332 5320 5310 5301 5295 5290 5286 5282 5279 5276 5273 5273 5275 5281 5289 5299 5311 5325 5341 5357 5370 5384 5398 5415 5435 5459 5485 5511 5537 5562 5587 5610 5631 5651
5485 5468 5451 5433 5416 5397 5379 5361 5344 5329 5316 5306 5297 5290 5284 5280 5278 5275 5273 5271 5270 5271 5276 5282 5291 5303 5316 5332 5346 5360 5373 5386 5401 5420 5442 5467 5493 5519 5544 5569 5593 5615 5635
5480 5463 5446 5430 5413 5395 5376 5358 5342 5327 5314 5303 5294 5286 5280 5275 5272 5271 5270 5269 5268 5269 5272 5278 5286 5296 5309 5323 5337 5351 5362 5374 5388 5405 5426 5449 5475 5501 5527 5552 5577 5600 5621
5476 5459 5443 5427 5410 5393 5375 5358 5342 5327 5314 5303 5293 5284 5276 5271 5268 5266 5266 5265 5265 5266 5269 5274 5280 5290 5302 5315 5329 5342 5354 5364 5377 5392 5412 5434 5460 5486 5512 5537 5561 5585 5607
5473 5456 5441 5425 5409 5392 5375 5358 5343 5329 5315 5303 5293 5283 5276 5270 5265 5263 5262 5262 5262 5263 5266 5270 5276 5284 5295 5308 5322 5334 5346 5356 5368 5381 5400 5422 5446 5472 5498 5522 5547 5570 5593
5470 5454 5439 5423 5407 5391 5375 5359 5345 5331 5317 5305 5295 5285 5277 5270 5265 5262 5260 5259 5260 5261 5263 5266 5272 5279 5289 5301 5314 5327 5338 5349 5359 5372 5389 5410 5434 5459 5485 5510 5536 5559 5581
5468 5452 5437 5422 5406 5391 5376 5361 5346 5332 5320 5309 5298 5288 5279 5272 5266 5262 5259 5258 5258 5259 5260 5263 5268 5275 5284 5295 5307 5319 5331 5341 5351 5362 5379 5400 5424 5450 5475 5499 5521 5545 5568
5467 5451 5436 5421 5406 5391 5377 5361 5346 5334 5323 5312 5301 5292 5283 5275 5269 5264 5260 5257 5257 5257 5259 5261 5266 5272 5280 5290 5301 5312 5323 5333 5344 5356 5372 5392 5414 5439 5465 5489 5511 5534 5556
5466 5451 5436 5421 5407 5393 5379 5364 5350 5337 5327 5316 5306 5296 5288 5280 5273 5267 5262 5259 5257 5256 5257 5260 5263 5269 5276 5285 5295 5306 5316 5326 5337 5348 5364 5385 5407 5432 5456 5480 5502 5524 5546
5466 5451 5437 5422 5408 5394 5381 5367 5354 5341 5331 5321 5311 5302 5293 5285 5277 5271 5266 5261 5258 5257 5257 5258 5261 5266 5272 5280 5290 5300 5310 5320 5330 5341 5357 5379 5400 5425 5449 5472 5493 5515 5536
5466 5451 5437 5423 5409 5395 5382 5370 5357 5345 5334 5324 5315 5306 5298 5290 5282 5275 5269 5265 5261 5259 5258 5258 5260 5264 5269 5276 5284 5294 5304 5314 5324 5336 5352 5372 5394 5418 5442 5464 5486 5507 5528
5465 5450 5437 5423 5409 5397 5384 5373 5361 5349 5338 5327 5318 5310 5302 5294 5287 5280 5274 5268 5264 5261 5259 5259 5260 5263 5267 5273 5281 5289 5299 5309 5319 5332 5349 5369 5389 5411 5436 5457 5478 5499 5519